QPF
0.00 0.00 0.00 0.00 0.00 0.00 0.00 0.00 0.00 0.00 0.00 0.00 0.00 0.00 0.00 0.00 0.00 0.00 0.00 0.00 0.00 0.00 0.01 0.04 0.02 0.01 0.01 0.01 0.01 0.00 0.01 0.03 0.02 0.03 0.04 0.00 0.00 0.00 0.00 0.00 0.00 0.00 0.00 0.00 0.00 0.00 0.00 0.00 0.00
0.00 0.00 0.00 0.00 0.00 0.00 0.00 0.00 0.00 0.00 0.00 0.00 0.00 0.00 0.00 0.00 0.00 0.00 0.00 0.00 0.00 0.00 0.00 0.00 0.01 0.02 0.00 0.01 0.02 0.01 0.00 0.03 0.03 0.00 0.00 0.00 0.00 0.00 0.00 0.00 0.00 0.00 0.00 0.00 0.00 0.00 0.00 0.00 0.00
0.00 0.00 0.00 0.00 0.00 0.00 0.00 0.00 0.00 0.00 0.00 0.00 0.00 0.00 0.00 0.00 0.00 0.00 0.00 0.00 0.00 0.00 0.00 0.00 0.00 0.01 0.01 0.01 0.01 0.00 0.01 0.03 0.02 0.01 0.01 0.00 0.00 0.00 0.00 0.00 0.00 0.00 0.00 0.00 0.00 0.00 0.00 0.00 0.00
0.00 0.00 0.00 0.00 0.00 0.00 0.00 0.00 0.00 0.00 0.00 0.00 0.00 0.00 0.00 0.00 0.00 0.00 0.00 0.00 0.00 0.00 0.00 0.00 0.00 0.01 0.02 0.02 0.01 0.01 0.03 0.03 0.01 0.02 0.02 0.00 0.00 0.00 0.00 0.00 0.00 0.00 0.00 0.00 0.00 0.00 0.00 0.00 0.00
0.00 0.00 0.00 0.00 0.00 0.00 0.00 0.00 0.00 0.00 0.00 0.00 0.00 0.00 0.00 0.00 0.00 0.00 0.00 0.00 0.00 0.00 0.01 0.00 0.00 0.01 0.02 0.02 0.02 0.01 0.03 0.03 0.02 0.01 0.00 0.00 0.00 0.00 0.00 0.00 0.00 0.00 0.00 0.00 0.00 0.00 0.00 0.00 0.00
0.00 0.00 0.00 0.00 0.00 0.00 0.00 0.00 0.00 0.00 0.00 0.00 0.00 0.00 0.00 0.00 0.00 0.00 0.00 0.00 0.00 0.00 0.01 0.00 0.00 0.00 0.00 0.00 0.00 0.00 0.01 0.02 0.02 0.01 0.01 0.01 0.02 0.00 0.00 0.00 0.00 0.00 0.00 0.00 0.00 0.00 0.00 0.00 0.00
0.00 0.00 0.00 0.00 0.00 0.00 0.00 0.00 0.00 0.00 0.00 0.00 0.00 0.00 0.00 0.00 0.00 0.00 0.00 0.00 0.00 0.00 0.00 0.00 0.00 0.00 0.00 0.00 0.00 0.00 0.00 0.00 0.00 0.00 0.01 0.00 0.00 0.00 0.00 0.00 0.00 0.00 0.00 0.00 0.00 0.00 0.00 0.00 0.00
0.00 0.00 0.00 0.00 0.00 0.00 0.00 0.00 0.00 0.00 0.00 0.00 0.00 0.00 0.00 0.00 0.00 0.00 0.00 0.00 0.00 0.00 0.00 0.00 0.00 0.00 0.00 0.01 0.00 0.00 0.00 0.00 0.00 0.00 0.00 0.00 0.00 0.00 0.00 0.00 0.00 0.00 0.00 0.00 0.00 0.00 0.00 0.00 0.00
0.00 0.00 0.00 0.00 0.00 0.00 0.00 0.00 0.00 0.00 0.00 0.00 0.00 0.00 0.00 0.00 0.00 0.00 0.00 0.00 0.00 0.00 0.00 0.00 0.00 0.00 0.00 0.00 0.01 0.01 0.01 0.01 0.00 0.00 0.00 0.00 0.00 0.00 0.00 0.00 0.00 0.00 0.00 0.00 0.00 0.00 0.00 0.00 0.00
0.00 0.00 0.00 0.00 0.00 0.00 0.00 0.00 0.00 0.00 0.00 0.00 0.00 0.00 0.00 0.00 0.00 0.00 0.00 0.00 0.00 0.00 0.00 0.00 0.00 0.00 0.00 0.00 0.00 0.02 0.01 0.01 0.00 0.01 0.00 0.01 0.05 0.03 0.00 0.00 0.00 0.00 0.00 0.00 0.00 0.00 0.00 0.00 0.00
0.00 0.00 0.00 0.00 0.00 0.00 0.00 0.00 0.00 0.00 0.00 0.00 0.00 0.00 0.00 0.00 0.00 0.00 0.00 0.00 0.00 0.00 0.00 0.00 0.00 0.00 0.00 0.00 0.00 0.00 0.02 0.02 0.01 0.01 0.02 0.02 0.03 0.04 0.00 0.00 0.00 0.00 0.00 0.00 0.00 0.00 0.00 0.00 0.00
0.00 0.00 0.00 0.00 0.00 0.00 0.00 0.00 0.00 0.00 0.00 0.00 0.00 0.00 0.00 0.00 0.00 0.00 0.00 0.00 0.00 0.00 0.00 0.00 0.00 0.00 0.00 0.00 0.00 0.00 0.00 0.00 0.00 0.00 0.00 0.00 0.00 0.02 0.01 0.00 0.00 0.00 0.00 0.00 0.00 0.00 0.00 0.00 0.00
0.00 0.00 0.00 0.00 0.00 0.00 0.00 0.00 0.00 0.00 0.00 0.00 0.00 0.00 0.00 0.00 0.00 0.00 0.00 0.00 0.00 0.00 0.00 0.00 0.00 0.00 0.00 0.00 0.00 0.00 0.00 0.00 0.00 0.00 0.00 0.00 0.00 0.00 0.00 0.00 0.00 0.00 0.00 0.00 0.00 0.00 0.00 0.00 0.00
0.00 0.00 0.00 0.00 0.00 0.00 0.00 0.00 0.00 0.00 0.00 0.00 0.00 0.00 0.00 0.00 0.00 0.00 0.00 0.00 0.00 0.00 0.00 0.00 0.00 0.00 0.00 0.00 0.00 0.00 0.00 0.00 0.00 0.00 0.00 0.00 0.00 0.00 0.00 0.00 0.00 0.00 0.00 0.00 0.00 0.00 0.00 0.00 0.00
0.00 0.00 0.00 0.00 0.00 0.00 0.00 0.00 0.00 0.00 0.00 0.00 0.00 0.00 0.00 0.00 0.00 0.00 0.00 0.00 0.00 0.00 0.00 0.00 0.00 0.00 0.00 0.00 0.00 0.00 0.00 0.00 0.00 0.00 0.00 0.00 0.00 0.00 0.00 0.00 0.00 0.00 0.00 0.00 0.00 0.00 0.00 0.00 0.00
0.00 0.00 0.00 0.00 0.00 0.00 0.00 0.00 0.00 0.00 0.00 0.00 0.00 0.00 0.00 0.00 0.00 0.00 0.00 0.00 0.00 0.00 0.00 0.00 0.00 0.00 0.00 0.00 0.00 0.00 0.00 0.00 0.00 0.00 0.00 0.00 0.00 0.00 0.00 0.00 0.00 0.00 0.00 0.00 0.00 0.00 0.00 0.00 0.00
0.00 0.00 0.00 0.00 0.00 0.00 0.00 0.00 0.00 0.00 0.00 0.00 0.00 0.00 0.00 0.00 0.00 0.00 0.00 0.00 0.00 0.00 0.00 0.00 0.00 0.00 0.00 0.00 0.00 0.00 0.00 0.00 0.00 0.00 0.00 0.00 0.00 0.00 0.00 0.00 0.00 0.00 0.00 0.00 0.00 0.00 0.00 0.00 0.00
0.00 0.00 0.00 0.00 0.00 0.00 0.00 0.00 0.00 0.00 0.00 0.00 0.00 0.00 0.00 0.00 0.00 0.00 0.00 0.00 0.00 0.00 0.00 0.00 0.00 0.00 0.00 0.00 0.00 0.00 0.00 0.00 0.00 0.00 0.00 0.00 0.00 0.00 0.00 0.00 0.00 0.00 0.00 0.00 0.00 0.00 0.00 0.00 0.00
0.00 0.00 0.00 0.00 0.00 0.00 0.00 0.00 0.00 0.00 0.00 0.00 0.00 0.00 0.00 0.00 0.00 0.00 0.00 0.00 0.00 0.00 0.00 0.00 0.00 0.00 0.00 0.00 0.00 0.00 0.00 0.00 0.00 0.00 0.00 0.00 0.00 0.00 0.00 0.00 0.00 0.00 0.00 0.00 0.00 0.00 0.00 0.00 0.00
0.00 0.00 0.00 0.00 0.00 0.00 0.00 0.00 0.00 0.00 0.00 0.00 0.00 0.00 0.00 0.00 0.00 0.00 0.00 0.00 0.00 0.00 0.00 0.00 0.00 0.00 0.00 0.00 0.00 0.00 0.00 0.00 0.00 0.00 0.00 0.00 0.00 0.00 0.00 0.00 0.00 0.00 0.00 0.00 0.00 0.00 0.00 0.00 0.00
0.00 0.00 0.00 0.00 0.00 0.00 0.00 0.00 0.00 0.00 0.00 0.00 0.00 0.00 0.00 0.00 0.00 0.00 0.00 0.00 0.00 0.00 0.00 0.00 0.00 0.00 0.00 0.00 0.00 0.00 0.00 0.00 0.00 0.00 0.00 0.00 0.00 0.00 0.00 0.00 0.00 0.00 0.00 0.00 0.00 0.00 0.00 0.00 0.00
0.00 0.00 0.00 0.00 0.00 0.00 0.00 0.00 0.00 0.00 0.00 0.00 0.00 0.00 0.00 0.00 0.00 0.00 0.00 0.00 0.00 0.00 0.00 0.00 0.00 0.00 0.00 0.00 0.00 0.00 0.00 0.00 0.00 0.00 0.00 0.00 0.00 0.00 0.00 0.00 0.00 0.00 0.00 0.00 0.00 0.00 0.00 0.00 0.00
0.00 0.00 0.00 0.00 0.00 0.00 0.00 0.00 0.00 0.00 0.00 0.00 0.00 0.00 0.00 0.00 0.00 0.00 0.00 0.00 0.00 0.00 0.00 0.00 0.00 0.00 0.00 0.00 0.00 0.00 0.00 0.00 0.00 0.00 0.00 0.00 0.00 0.00 0.00 0.00 0.00 0.00 0.00 0.00 0.00 0.00 0.00 0.00 0.00
0.00 0.00 0.00 0.00 0.00 0.00 0.00 0.00 0.00 0.00 0.00 0.00 0.00 0.00 0.00 0.00 0.00 0.00 0.00 0.00 0.00 0.00 0.00 0.00 0.00 0.00 0.00 0.00 0.00 0.00 0.00 0.00 0.00 0.00 0.00 0.00 0.00 0.00 0.00 0.00 0.00 0.00 0.00 0.00 0.00 0.00 0.00 0.00 0.00
0.00 0.00 0.00 0.00 0.00 0.00 0.00 0.00 0.00 0.00 0.00 0.00 0.00 0.00 0.00 0.00 0.00 0.00 0.00 0.00 0.00 0.00 0.00 0.00 0.00 0.00 0.00 0.00 0.00 0.00 0.00 0.00 0.00 0.00 0.00 0.00 0.00 0.00 0.00 0.00 0.00 0.00 0.00 0.00 0.00 0.00 0.00 0.00 0.00
0.00 0.00 0.00 0.00 0.00 0.00 0.00 0.00 0.00 0.00 0.00 0.00 0.00 0.00 0.00 0.00 0.00 0.00 0.00 0.00 0.00 0.00 0.00 0.00 0.00 0.00 0.00 0.00 0.00 0.00 0.00 0.00 0.00 0.00 0.00 0.00 0.00 0.00 0.00 0.00 0.00 0.00 0.00 0.00 0.00 0.00 0.00 0.00 0.00
0.00 0.00 0.00 0.00 0.00 0.00 0.00 0.00 0.00 0.00 0.00 0.00 0.00 0.00 0.00 0.00 0.00 0.00 0.00 0.00 0.00 0.00 0.00 0.00 0.00 0.00 0.00 0.00 0.00 0.00 0.00 0.00 0.00 0.00 0.00 0.00 0.00 0.00 0.00 0.00 0.00 0.00 0.00 0.00 0.00 0.00 0.00 0.00 0.00
0.00 0.00 0.00 0.00 0.00 0.00 0.00 0.00 0.00 0.00 0.00 0.00 0.00 0.00 0.00 0.00 0.00 0.00 0.00 0.00 0.00 0.00 0.00 0.00 0.00 0.00 0.00 0.00 0.00 0.00 0.00 0.00 0.00 0.00 0.00 0.00 0.00 0.00 0.00 0.00 0.00 0.00 0.00 0.00 0.00 0.00 0.00 0.00 0.00
0.00 0.00 0.00 0.00 0.00 0.00 0.00 0.00 0.00 0.00 0.00 0.00 0.00 0.00 0.00 0.00 0.00 0.00 0.00 0.00 0.00 0.00 0.00 0.00 0.00 0.00 0.00 0.00 0.00 0.00 0.00 0.00 0.00 0.00 0.00 0.00 0.00 0.00 0.00 0.00 0.00 0.00 0.00 0.00 0.00 0.00 0.00 0.00 0.00
0.00 0.00 0.00 0.00 0.00 0.00 0.00 0.00 0.00 0.00 0.00 0.00 0.00 0.00 0.00 0.00 0.00 0.00 0.00 0.00 0.00 0.00 0.00 0.00 0.00 0.00 0.00 0.00 0.00 0.00 0.00 0.00 0.00 0.00 0.00 0.00 0.00 0.00 0.00 0.00 0.00 0.00 0.00 0.00 0.00 0.00 0.00 0.00 0.00
MSLP
1013.47 1012.94 1013.10 1013.58 1015.30 1016.34 1016.90 1016.85 1016.38 1016.34 1016.16 1016.05 1016.12 1016.56 1018.10 1018.40 1018.87 1020.15 1019.73 1019.26 1019.49 1019.95 1020.32 1020.46 1020.74 1021.07 1021.32 1021.47 1021.61 1021.71 1021.82 1021.97 1022.10 1022.49 1022.59 1022.76 1022.87 1022.98 1023.08 1023.07 1023.01 1023.01 1023.11 1023.12 1023.09 1022.98 1022.88 1022.76 1022.58
1013.48 1013.04 1013.44 1014.50 1015.98 1017.17 1017.51 1016.78 1016.67 1016.23 1015.94 1016.33 1016.63 1017.27 1017.96 1019.28 1019.07 1019.41 1019.40 1019.03 1019.44 1019.82 1020.30 1020.65 1020.95 1021.22 1021.43 1021.54 1021.75 1021.89 1021.98 1022.14 1022.32 1022.56 1022.72 1023.00 1023.13 1023.27 1023.41 1023.43 1023.43 1023.42 1023.46 1023.40 1023.36 1023.23 1023.14 1023.01 1022.94
1013.38 1013.41 1014.75 1015.36 1016.58 1017.01 1016.98 1016.69 1016.35 1016.11 1015.88 1016.16 1016.76 1017.54 1018.53 1019.66 1019.53 1019.53 1019.20 1018.90 1019.54 1019.83 1020.19 1020.62 1020.96 1021.21 1021.52 1021.72 1021.87 1022.03 1022.24 1022.43 1022.58 1022.77 1022.99 1023.16 1023.30 1023.55 1023.71 1023.73 1023.79 1023.75 1023.77 1023.78 1023.71 1023.68 1023.54 1023.52 1023.38
1013.54 1014.04 1015.21 1015.80 1016.59 1016.34 1016.18 1016.32 1015.86 1016.02 1015.90 1016.16 1017.07 1018.78 1019.31 1019.68 1019.49 1019.47 1019.20 1019.06 1019.47 1019.78 1020.17 1020.64 1020.98 1021.25 1021.52 1021.72 1021.98 1022.14 1022.35 1022.54 1022.73 1022.89 1023.06 1023.26 1023.47 1023.66 1023.75 1023.82 1024.01 1024.08 1024.13 1024.15 1024.13 1024.03 1024.04 1024.01 1023.86
1013.99 1014.98 1015.81 1016.34 1016.24 1016.10 1015.81 1015.53 1015.68 1016.02 1016.19 1016.72 1017.04 1019.23 1019.90 1020.05 1019.82 1019.66 1019.58 1019.22 1019.70 1019.98 1020.22 1020.59 1020.98 1021.32 1021.61 1021.85 1022.09 1022.27 1022.45 1022.67 1022.79 1022.95 1023.09 1023.38 1023.54 1023.78 1023.83 1023.97 1024.10 1024.28 1024.38 1024.41 1024.44 1024.39 1024.40 1024.34 1024.31
1014.81 1015.51 1016.46 1016.59 1016.10 1015.71 1015.48 1015.11 1015.35 1015.79 1016.21 1017.06 1018.10 1019.23 1020.43 1020.45 1020.15 1020.29 1020.08 1020.14 1019.93 1020.03 1020.46 1020.74 1021.17 1021.29 1021.56 1021.79 1021.99 1022.22 1022.48 1022.67 1022.83 1023.06 1023.20 1023.45 1023.73 1023.87 1024.08 1024.24 1024.46 1024.68 1024.85 1024.85 1024.77 1024.80 1024.78 1024.73 1024.74
1015.32 1016.33 1016.72 1016.46 1016.29 1015.78 1015.43 1015.12 1015.54 1015.91 1016.42 1017.13 1017.74 1019.61 1020.69 1020.54 1020.58 1020.51 1020.63 1020.62 1020.66 1020.90 1020.96 1021.12 1021.26 1021.53 1021.71 1021.88 1022.10 1022.33 1022.52 1022.77 1022.94 1023.04 1023.22 1023.52 1023.81 1024.03 1024.25 1024.48 1024.72 1024.99 1025.12 1025.14 1025.26 1025.22 1025.32 1025.25 1025.05
1015.43 1016.43 1016.60 1016.17 1016.18 1015.82 1015.36 1015.36 1015.69 1016.07 1016.82 1017.07 1017.89 1019.61 1020.81 1020.52 1020.52 1020.70 1020.91 1021.22 1021.40 1021.41 1021.71 1021.77 1021.60 1021.55 1021.77 1021.94 1022.08 1022.34 1022.59 1022.79 1022.96 1023.14 1023.36 1023.66 1023.96 1024.20 1024.47 1024.66 1024.76 1024.95 1025.09 1025.24 1025.38 1025.42 1025.44 1025.32 1025.26
1015.32 1016.53 1016.88 1016.29 1015.78 1015.76 1015.50 1015.55 1015.69 1016.17 1017.05 1018.19 1019.17 1019.66 1020.10 1020.26 1020.60 1021.14 1021.68 1021.94 1022.00 1022.04 1022.01 1021.92 1021.98 1021.83 1021.59 1021.80 1021.97 1022.17 1022.32 1022.53 1022.76 1023.10 1023.43 1023.78 1024.04 1024.27 1024.51 1024.69 1024.79 1025.00 1025.24 1025.46 1025.58 1025.63 1025.74 1025.76 1025.72
1015.88 1016.83 1016.59 1016.18 1015.88 1015.66 1015.63 1015.77 1016.06 1016.72 1017.81 1019.14 1020.00 1020.27 1020.38 1020.59 1020.94 1021.57 1022.19 1022.63 1022.65 1022.75 1022.67 1022.52 1022.40 1022.32 1022.13 1021.79 1021.85 1022.08 1022.18 1022.39 1022.55 1022.96 1023.34 1023.67 1024.03 1024.32 1024.63 1024.98 1025.20 1025.24 1025.32 1025.47 1025.70 1025.82 1025.85 1026.03 1026.11
1015.89 1016.37 1016.27 1016.18 1015.99 1015.71 1015.77 1016.07 1016.30 1017.05 1018.49 1019.07 1019.78 1020.59 1020.89 1021.26 1021.74 1022.07 1022.51 1022.63 1022.70 1022.86 1022.87 1022.80 1022.65 1022.43 1022.36 1022.22 1021.88 1022.00 1022.17 1022.69 1022.99 1022.88 1023.10 1023.53 1024.04 1024.48 1024.94 1025.24 1025.40 1025.55 1025.42 1025.57 1025.77 1025.97 1026.09 1026.22 1026.35
1016.05 1016.03 1016.10 1016.17 1016.08 1016.12 1016.22 1016.31 1016.76 1017.52 1018.76 1019.12 1019.66 1020.39 1021.02 1021.62 1022.04 1022.33 1022.61 1022.77 1022.88 1023.09 1023.21 1023.10 1022.85 1022.61 1022.29 1022.23 1021.92 1022.20 1022.72 1023.08 1023.30 1023.28 1023.29 1023.64 1024.13 1024.48 1024.86 1025.06 1025.30 1025.53 1025.50 1025.55 1025.80 1025.95 1026.05 1026.25 1026.27
1016.20 1016.19 1016.13 1016.30 1016.35 1016.48 1016.56 1016.85 1017.35 1018.39 1019.18 1019.63 1020.15 1020.79 1021.50 1021.86 1022.22 1022.52 1022.74 1023.01 1023.17 1023.40 1023.49 1023.32 1022.98 1022.65 1022.34 1022.21 1022.22 1022.52 1023.08 1023.36 1023.54 1023.53 1023.74 1023.93 1024.33 1024.68 1024.97 1025.36 1025.52 1025.74 1025.78 1025.98 1026.22 1026.27 1026.47 1026.50 1026.61
1016.36 1016.45 1016.44 1016.46 1016.59 1016.72 1017.06 1017.41 1017.85 1018.52 1019.25 1019.95 1020.47 1021.17 1021.71 1021.97 1022.32 1022.70 1022.91 1023.14 1023.31 1023.54 1023.51 1023.32 1023.00 1022.76 1022.44 1022.44 1022.70 1023.02 1023.24 1023.53 1023.82 1024.09 1024.41 1024.54 1024.81 1025.21 1025.54 1026.00 1026.16 1026.19 1026.33 1026.45 1026.61 1026.77 1027.07 1026.95 1027.05
1016.51 1016.85 1016.75 1016.54 1016.73 1017.06 1017.30 1017.91 1017.85 1018.29 1019.33 1020.03 1020.69 1021.23 1021.76 1022.05 1022.37 1022.73 1022.84 1023.08 1023.35 1023.52 1023.48 1023.25 1023.17 1023.15 1022.85 1023.06 1023.25 1023.58 1023.82 1024.14 1024.45 1024.87 1025.08 1025.34 1025.47 1025.78 1025.99 1026.30 1026.54 1026.78 1027.06 1026.95 1027.16 1027.28 1027.44 1027.53 1027.48
1017.07 1017.31 1017.36 1016.47 1016.72 1017.27 1017.62 1017.67 1017.55 1018.31 1019.08 1020.08 1020.70 1021.22 1021.63 1022.03 1022.33 1022.61 1022.75 1023.08 1023.32 1023.42 1023.48 1023.38 1023.32 1023.47 1023.40 1023.37 1023.66 1024.08 1024.51 1024.80 1025.03 1025.45 1025.81 1026.04 1026.19 1026.44 1026.60 1026.81 1027.16 1027.36 1027.38 1027.47 1027.75 1027.88 1028.08 1028.24 1028.23
1017.85 1017.83 1017.62 1016.98 1016.88 1017.40 1017.97 1017.96 1017.95 1018.54 1019.11 1019.90 1020.41 1021.06 1021.48 1021.97 1022.41 1022.59 1022.72 1023.02 1023.18 1023.25 1023.33 1023.51 1023.69 1023.69 1023.77 1023.87 1024.12 1024.48 1024.95 1025.38 1025.77 1025.98 1026.40 1026.49 1026.54 1026.71 1026.93 1027.40 1027.77 1027.72 1027.89 1028.01 1028.11 1028.45 1028.60 1028.67 1028.63
1018.19 1018.14 1017.55 1017.21 1017.23 1017.39 1018.09 1018.00 1018.10 1018.54 1019.00 1019.33 1019.83 1020.51 1021.07 1021.48 1021.97 1022.42 1022.63 1022.89 1023.02 1023.11 1023.23 1023.50 1023.83 1023.93 1024.01 1024.21 1024.53 1025.02 1025.51 1026.03 1026.25 1026.53 1026.89 1026.97 1027.07 1027.15 1027.30 1027.71 1028.00 1028.07 1028.25 1028.49 1028.59 1028.85 1029.10 1029.24 1029.28
1017.79 1017.90 1017.68 1017.09 1016.88 1017.47 1017.71 1017.68 1017.66 1017.91 1018.57 1018.84 1019.38 1019.70 1020.21 1020.73 1021.42 1021.95 1022.38 1022.76 1022.98 1023.07 1023.18 1023.36 1023.67 1024.00 1024.04 1024.41 1024.77 1025.38 1026.04 1026.67 1026.89 1027.30 1027.56 1027.66 1027.82 1028.04 1028.21 1028.51 1028.68 1028.81 1029.06 1029.46 1029.11 1029.31 1029.42 1029.57 1029.57
1017.86 1017.88 1017.54 1017.17 1017.05 1017.61 1017.57 1017.54 1017.11 1017.24 1017.13 1017.18 1017.64 1018.42 1019.18 1020.33 1021.23 1021.76 1022.19 1022.52 1022.73 1022.78 1022.83 1023.05 1023.29 1023.72 1024.03 1024.27 1024.85 1025.45 1026.49 1027.39 1027.58 1027.83 1028.19 1028.32 1028.55 1028.71 1028.86 1029.12 1029.36 1029.58 1029.64 1029.88 1030.15 1029.91 1030.26 1030.68 1030.39
1017.64 1017.58 1017.53 1017.68 1017.60 1017.76 1017.83 1017.28 1016.80 1015.90 1015.80 1015.89 1016.35 1016.92 1017.98 1018.95 1020.15 1021.19 1021.85 1022.31 1022.48 1022.58 1022.66 1022.75 1023.04 1023.50 1023.95 1024.43 1025.14 1026.08 1027.03 1027.78 1028.13 1028.42 1028.67 1029.14 1029.10 1029.30 1029.53 1029.88 1030.06 1030.27 1030.37 1030.75 1030.99 1030.97 1030.74 1031.40 1031.42
1017.31 1017.02 1017.26 1017.77 1018.46 1018.42 1018.08 1016.61 1015.98 1015.37 1015.23 1015.22 1015.16 1015.94 1016.94 1018.36 1019.54 1020.42 1021.38 1022.08 1022.26 1022.34 1022.37 1022.66 1022.98 1023.45 1024.06 1024.49 1025.31 1025.87 1026.67 1027.70 1028.69 1028.74 1029.26 1029.53 1029.68 1029.86 1030.05 1030.24 1030.47 1030.66 1030.93 1031.16 1031.35 1031.49 1031.57 1031.70 1032.14
1016.99 1017.04 1017.58 1018.09 1018.75 1019.03 1018.68 1018.36 1014.88 1014.69 1014.54 1014.08 1013.78 1014.91 1016.02 1017.24 1018.47 1019.68 1020.65 1021.53 1022.06 1022.29 1022.44 1022.76 1023.10 1023.54 1024.07 1024.66 1025.37 1026.09 1027.11 1027.97 1028.62 1029.12 1029.59 1030.10 1030.39 1030.40 1030.55 1030.72 1030.95 1031.38 1031.77 1032.10 1032.13 1032.25 1032.23 1032.53 1032.60
1017.10 1017.71 1018.54 1019.12 1019.69 1019.44 1018.51 1018.43 1013.84 1014.08 1012.93 1012.64 1013.12 1014.33 1015.70 1017.03 1018.25 1019.28 1020.27 1021.11 1021.91 1022.37 1022.66 1022.96 1023.26 1023.76 1024.11 1024.63 1025.42 1026.08 1026.87 1027.95 1028.74 1029.44 1029.87 1030.36 1030.59 1030.68 1030.85 1030.98 1031.34 1031.92 1032.16 1032.31 1032.58 1032.80 1033.04 1033.29 1033.37
1017.04 1018.33 1019.79 1020.60 1020.85 1018.86 1017.78 1017.53 1013.28 1012.90 1012.21 1012.17 1012.76 1013.81 1015.21 1016.47 1017.79 1018.90 1019.89 1020.83 1021.64 1022.27 1022.75 1023.20 1023.38 1023.92 1024.22 1024.79 1025.57 1026.30 1027.06 1027.69 1028.24 1028.86 1029.40 1029.99 1030.52 1030.91 1031.24 1031.38 1031.91 1032.19 1032.19 1032.40 1032.72 1033.30 1033.49 1033.62 1033.84
1016.83 1017.46 1018.68 1019.62 1020.41 1019.33 1018.40 1016.13 1012.88 1011.76 1011.54 1011.91 1012.31 1013.12 1014.67 1016.17 1017.29 1018.31 1019.29 1020.48 1021.44 1022.12 1022.63 1023.08 1023.46 1023.97 1024.35 1024.83 1025.55 1026.32 1026.98 1027.58 1028.22 1028.68 1029.38 1030.01 1030.49 1030.93 1031.36 1031.66 1032.08 1032.27 1032.34 1032.69 1033.26 1033.60 1033.84 1034.03 1034.25
1016.82 1017.12 1017.34 1018.98 1020.32 1019.87 1017.09 1014.58 1012.69 1012.12 1012.05 1012.38 1012.69 1013.51 1014.55 1015.56 1016.63 1017.94 1019.11 1020.04 1020.99 1021.83 1022.45 1022.90 1023.41 1023.95 1024.35 1024.87 1025.60 1026.39 1027.03 1027.58 1028.16 1028.87 1029.37 1029.90 1030.62 1031.13 1031.72 1032.05 1032.17 1032.32 1032.60 1032.99 1033.34 1033.75 1034.25 1034.40 1034.66
1015.56 1016.32 1017.87 1019.17 1020.08 1018.91 1016.10 1014.33 1012.25 1011.98 1011.98 1012.40 1013.16 1013.84 1014.81 1015.79 1016.84 1017.75 1018.63 1019.65 1020.67 1021.54 1022.25 1022.84 1023.31 1023.71 1024.20 1024.81 1025.48 1026.19 1026.88 1027.47 1028.08 1028.61 1029.39 1030.04 1030.68 1031.32 1031.77 1032.02 1032.13 1032.49 1032.82 1033.10 1033.58 1034.07 1034.30 1034.54 1034.82
1015.49 1015.84 1016.39 1017.13 1018.04 1017.48 1015.77 1011.75 1010.20 1010.24 1010.53 1011.58 1012.44 1013.12 1013.97 1015.13 1016.19 1017.25 1018.33 1019.37 1020.30 1021.31 1022.09 1022.71 1023.24 1023.69 1024.35 1024.97 1025.63 1026.32 1026.95 1027.41 1027.85 1028.41 1029.23 1029.95 1030.45 1031.04 1031.35 1031.67 1032.21 1032.67 1033.13 1033.33 1033.60 1034.00 1034.25 1034.61 1034.68
1013.99 1014.23 1014.78 1015.67 1016.25 1016.02 1015.00 1008.28 1009.47 1009.59 1010.18 1010.90 1011.70 1012.66 1013.59 1014.49 1015.68 1016.81 1017.78 1018.93 1019.96 1020.81 1021.60 1022.22 1022.84 1023.41 1024.04 1024.70 1025.42 1026.11 1026.61 1027.22 1027.98 1028.82 1029.42 1029.91 1030.09 1030.68 1031.19 1031.81 1032.28 1032.56 1033.00 1033.46 1033.77 1033.87 1034.33 1034.42 1034.68
Thickness
5768 5772 5770 5758 5716 5700 5692 5704 5713 5710 5712 5726 5724 5716 5701 5703 5694 5669 5706 5712 5709 5705 5702 5701 5699 5697 5695 5694 5693 5693 5692 5691 5690 5687 5688 5688 5688 5688 5689 5690 5691 5692 5690 5691 5691 5693 5694 5695 5697
5769 5772 5763 5739 5702 5676 5681 5708 5702 5714 5724 5723 5721 5714 5706 5690 5706 5704 5705 5714 5711 5708 5703 5700 5698 5696 5695 5695 5693 5692 5691 5690 5689 5687 5687 5685 5685 5685 5685 5686 5687 5687 5687 5687 5687 5689 5690 5691 5692
5770 5769 5740 5720 5697 5683 5689 5708 5709 5721 5730 5728 5722 5717 5706 5696 5705 5705 5713 5716 5711 5708 5705 5702 5699 5698 5695 5693 5692 5691 5690 5688 5687 5686 5685 5684 5684 5682 5682 5683 5683 5684 5684 5684 5684 5684 5685 5685 5686
5763 5754 5738 5707 5706 5710 5711 5710 5720 5720 5730 5730 5717 5697 5705 5708 5709 5711 5715 5716 5712 5709 5706 5703 5699 5697 5695 5694 5692 5690 5688 5687 5685 5684 5684 5683 5682 5681 5681 5681 5680 5680 5680 5679 5680 5681 5680 5680 5682
5757 5738 5712 5702 5712 5719 5722 5726 5723 5720 5721 5723 5721 5698 5695 5706 5711 5713 5713 5715 5712 5710 5707 5704 5700 5697 5694 5693 5691 5689 5688 5686 5685 5684 5683 5681 5680 5679 5679 5678 5678 5676 5675 5675 5675 5675 5675 5675 5675
5735 5730 5699 5696 5709 5720 5726 5735 5734 5723 5724 5719 5706 5700 5693 5704 5708 5707 5710 5709 5710 5709 5706 5703 5699 5698 5695 5693 5691 5689 5686 5685 5683 5682 5681 5679 5677 5676 5674 5674 5672 5670 5668 5668 5669 5669 5670 5670 5669
5733 5711 5704 5711 5706 5717 5721 5737 5727 5720 5717 5718 5719 5694 5693 5700 5704 5705 5705 5705 5705 5702 5701 5700 5699 5697 5694 5692 5690 5688 5685 5683 5682 5682 5680 5678 5675 5673 5671 5669 5667 5664 5664 5665 5664 5664 5663 5663 5665
5727 5715 5713 5714 5705 5711 5724 5730 5730 5721 5715 5726 5723 5693 5687 5699 5704 5702 5701 5700 5699 5698 5696 5695 5695 5695 5693 5692 5689 5687 5684 5682 5681 5679 5678 5675 5673 5670 5667 5665 5663 5662 5661 5660 5659 5658 5658 5659 5659
5738 5697 5692 5710 5716 5714 5724 5722 5730 5731 5717 5710 5706 5703 5702 5704 5703 5699 5693 5692 5692 5692 5693 5693 5693 5693 5693 5690 5689 5687 5685 5683 5681 5678 5676 5673 5670 5667 5665 5663 5662 5660 5658 5656 5654 5654 5653 5652 5652
5714 5689 5707 5720 5717 5718 5722 5722 5719 5717 5709 5699 5694 5700 5702 5701 5699 5692 5687 5683 5685 5685 5685 5686 5687 5687 5688 5688 5687 5686 5684 5682 5681 5677 5674 5671 5669 5667 5664 5660 5658 5657 5656 5654 5651 5650 5649 5648 5647
5718 5699 5715 5714 5719 5722 5721 5719 5724 5713 5702 5702 5695 5692 5695 5692 5689 5687 5684 5683 5684 5682 5682 5682 5683 5683 5683 5684 5684 5684 5683 5678 5675 5675 5673 5670 5666 5663 5660 5657 5655 5653 5653 5651 5649 5647 5646 5645 5643
5706 5718 5716 5716 5716 5716 5714 5719 5714 5712 5701 5703 5697 5695 5691 5686 5684 5683 5682 5681 5680 5678 5676 5678 5680 5681 5682 5682 5682 5679 5676 5673 5671 5670 5669 5666 5662 5659 5655 5654 5652 5650 5649 5649 5646 5644 5642 5641 5639
5705 5710 5714 5712 5713 5712 5713 5709 5708 5698 5693 5696 5694 5690 5683 5681 5680 5679 5677 5676 5676 5672 5671 5673 5675 5677 5679 5679 5677 5675 5671 5668 5666 5665 5663 5661 5657 5653 5650 5647 5647 5644 5643 5641 5638 5637 5634 5633 5630
5705 5704 5706 5707 5706 5708 5701 5701 5706 5698 5689 5688 5688 5682 5678 5678 5676 5673 5673 5672 5671 5668 5668 5669 5671 5672 5674 5672 5670 5668 5665 5663 5660 5658 5654 5652 5649 5646 5642 5638 5636 5636 5634 5633 5631 5628 5624 5623 5622
5703 5693 5696 5699 5698 5698 5698 5688 5691 5697 5688 5685 5682 5678 5675 5675 5672 5669 5670 5669 5665 5664 5665 5666 5666 5666 5668 5665 5663 5660 5658 5654 5651 5647 5644 5642 5640 5638 5635 5632 5630 5627 5624 5623 5620 5618 5615 5614 5612
5689 5686 5672 5697 5692 5693 5690 5676 5697 5689 5686 5679 5677 5672 5672 5672 5669 5666 5666 5664 5662 5661 5660 5660 5660 5659 5659 5659 5656 5653 5649 5645 5642 5638 5636 5633 5631 5629 5626 5624 5620 5618 5616 5614 5611 5608 5605 5603 5602
5672 5657 5664 5681 5689 5682 5677 5676 5687 5682 5680 5676 5672 5669 5668 5665 5662 5661 5662 5660 5659 5659 5657 5655 5653 5652 5651 5650 5648 5644 5640 5637 5633 5631 5628 5626 5624 5622 5620 5615 5611 5611 5609 5607 5603 5599 5596 5592 5591
5654 5658 5667 5671 5676 5677 5665 5667 5678 5675 5674 5674 5672 5667 5665 5664 5662 5658 5658 5656 5655 5654 5653 5650 5647 5646 5645 5643 5639 5635 5631 5627 5625 5623 5620 5618 5616 5614 5612 5608 5605 5603 5601 5598 5594 5590 5585 5581 5578
5668 5662 5663 5670 5676 5665 5658 5663 5668 5670 5667 5669 5668 5667 5668 5667 5658 5656 5654 5650 5649 5648 5647 5645 5642 5639 5638 5635 5632 5627 5622 5617 5615 5611 5608 5607 5605 5602 5600 5597 5595 5592 5588 5583 5582 5577 5574 5570 5567
5656 5649 5650 5660 5664 5655 5656 5655 5668 5667 5676 5678 5678 5675 5672 5657 5652 5649 5647 5645 5644 5644 5643 5641 5639 5635 5632 5630 5625 5620 5612 5605 5603 5600 5597 5596 5593 5590 5588 5585 5582 5578 5574 5570 5567 5565 5559 5552 5550
5651 5647 5647 5646 5652 5648 5646 5644 5658 5676 5677 5681 5684 5684 5675 5664 5654 5645 5641 5639 5638 5637 5637 5636 5634 5630 5626 5622 5616 5608 5601 5595 5592 5589 5586 5583 5582 5579 5576 5572 5568 5564 5560 5554 5550 5547 5545 5535 5531
5638 5653 5651 5646 5634 5617 5638 5626 5655 5672 5672 5676 5686 5676 5672 5659 5652 5645 5637 5632 5631 5631 5632 5630 5627 5623 5618 5613 5607 5603 5598 5589 5580 5580 5576 5572 5569 5566 5562 5558 5554 5550 5545 5541 5535 5531 5527 5521 5513
5641 5651 5645 5637 5623 5618 5624 5602 5651 5670 5675 5687 5688 5681 5670 5659 5651 5641 5635 5629 5624 5624 5623 5620 5618 5615 5609 5604 5598 5593 5585 5578 5573 5568 5564 5558 5554 5551 5548 5544 5539 5533 5526 5521 5518 5514 5510 5502 5497
5636 5631 5622 5613 5605 5585 5624 5610 5646 5661 5680 5691 5686 5670 5657 5648 5641 5634 5626 5621 5615 5612 5611 5610 5607 5603 5600 5596 5590 5584 5578 5569 5562 5556 5552 5546 5543 5539 5534 5530 5525 5517 5512 5507 5501 5495 5489 5482 5476
5629 5614 5587 5578 5569 5596 5620 5607 5659 5662 5675 5682 5678 5663 5650 5643 5633 5626 5619 5613 5607 5602 5600 5598 5598 5593 5591 5587 5580 5574 5567 5562 5556 5550 5545 5537 5531 5525 5520 5516 5509 5503 5499 5493 5485 5476 5469 5463 5455
5613 5611 5586 5573 5576 5587 5596 5602 5645 5663 5668 5667 5671 5666 5650 5638 5629 5621 5614 5606 5600 5596 5592 5591 5587 5584 5581 5577 5571 5565 5558 5553 5546 5541 5533 5526 5520 5514 5508 5503 5495 5489 5483 5475 5465 5458 5450 5443 5435
5598 5598 5621 5592 5521 5549 5599 5622 5645 5649 5651 5654 5652 5650 5641 5634 5625 5614 5605 5601 5595 5589 5586 5584 5580 5575 5571 5567 5561 5554 5547 5542 5535 5528 5522 5515 5507 5499 5491 5484 5480 5473 5465 5457 5449 5440 5429 5422 5412
5604 5607 5581 5570 5559 5557 5595 5605 5633 5641 5642 5639 5635 5632 5628 5622 5613 5607 5601 5594 5588 5583 5578 5574 5570 5567 5562 5557 5551 5544 5537 5531 5524 5517 5508 5500 5491 5482 5475 5469 5463 5456 5448 5440 5431 5421 5411 5402 5391
5595 5589 5592 5591 5567 5564 5575 5632 5643 5649 5652 5636 5635 5633 5626 5619 5610 5602 5595 5587 5581 5574 5569 5564 5560 5556 5550 5544 5537 5530 5524 5519 5514 5506 5497 5487 5480 5471 5464 5456 5447 5438 5429 5421 5413 5402 5392 5381 5373
5597 5596 5587 5578 5578 5572 5573 5651 5642 5647 5644 5637 5633 5628 5625 5617 5606 5596 5590 5581 5575 5569 5563 5558 5552 5547 5541 5534 5527 5519 5514 5507 5498 5488 5481 5474 5469 5458 5449 5438 5429 5421 5412 5401 5391 5382 5370 5361 5350